Weather History for Wilmington, NC

Change the Weather History Date:

Sunday, October 7, 2012

  Actual Average Record
Temperature  
Mean Temperature 71 °F 68 °F  
Max Temperature 84 °F 78 °F 91 °F (1911)
Min Temperature 57 °F 58 °F 38 °F (1935)
Degree Days  
Heating Degree Days 0 2  
Month to date heating degree days 0 8  
Since 1 July heating degree days 0 13  
Cooling Degree Days 6 4  
Month to date cooling degree days 72 36  
Year to date cooling degree days 2147 1953  
Growing Degree Days 22 (Base 50)    
Moisture  
Dew Point 67 °F    
Average Humidity 81    
Maximum Humidity 97    
Minimum Humidity 65    
Precipitation  
Precipitation 0.36 in 0.15 in 6.34 in (2005)
Month to date precipitation 1.40 1.18  
Year to date precipitation 38.44 47.99  
Sea Level Pressure  
Sea Level Pressure 29.99 in    
Wind  
Wind Speed 4 mph (NNW)    
Max Wind Speed 14 mph    
Max Gust Speed 20 mph    
Visibility 8 miles    
Events Rain , Thunderstorm    
T = Trace of Precipitation, MM = Missing Value Source: NWS Daily Summary

Daily Weather History Graph

Daily Weather History Graph

Search for Another Location

Airport:

Trip Planner

Search our weather history database for the weather conditions in past years. The results will help you decide how hot, cold, wet, or windy it might be!

Date:

Astronomy

Oct. 07, 2012 Rise Set
Actual Time 7:11 AM EDT 6:47 PM EDT
Civil Twilight 6:45 AM EDT 7:12 PM EDT
Nautical Twilight 6:16 AM EDT 7:41 PM EDT
Astronomical Twilight 5:47 AM EDT 8:10 PM EDT
Moon No Moon Rise 1:36 PM EDT (10/7)
Length of Visible Light 12h 26m
Length of Day
11h 36m
Waning Gibbous, 56% of the Moon is Illuminated
Oct 7
Waning Gibbous
Oct 8
Last Quarter
Oct 15
New
Oct 21
First Quarter
Oct 29
Full

Hourly Weather History & Observations

Time (EDT) Temp. Heat Index Dew Point Humidity Pressure Visibility Wind Dir Wind Speed Gust Speed Precip Events Conditions
12:53 AM 70.0 °F - 66.0 °F 87% 29.95 in 10.0 mi Calm Calm - N/A   Clear
1:53 AM 68.0 °F - 64.9 °F 90% 29.95 in 10.0 mi Calm Calm - N/A   Clear
2:53 AM 66.9 °F - 64.9 °F 93% 29.95 in 9.0 mi Calm Calm - N/A   Clear
3:53 AM 66.9 °F - 64.9 °F 93% 29.95 in 8.0 mi Calm Calm - N/A   Clear
4:53 AM 66.9 °F - 64.9 °F 93% 29.94 in 9.0 mi Calm Calm - N/A   Clear
5:53 AM 66.0 °F - 64.0 °F 93% 29.95 in 7.0 mi Calm Calm - N/A   Clear
6:27 AM 68.0 °F - 66.2 °F 94% 29.96 in 6.0 mi North 4.6 mph - N/A   Mostly Cloudy
6:53 AM 66.9 °F - 64.9 °F 93% 29.96 in 5.0 mi Calm Calm - N/A   Mostly Cloudy
7:05 AM 66.2 °F - 64.4 °F 94% 29.96 in 5.0 mi Calm Calm - N/A   Mostly Cloudy
7:31 AM 66.2 °F - 64.4 °F 94% 29.96 in 4.0 mi Calm Calm - N/A   Mostly Cloudy
7:53 AM 68.0 °F - 66.0 °F 93% 29.96 in 4.0 mi Calm Calm - N/A   Mostly Cloudy
8:05 AM 68.0 °F - 66.2 °F 94% 29.97 in 5.0 mi Calm Calm - 0.00 in Rain Light Rain
8:41 AM 69.8 °F - 66.2 °F 88% 29.98 in 5.0 mi Calm Calm - 0.01 in   Mostly Cloudy
8:53 AM 70.0 °F - 68.0 °F 93% 29.99 in 5.0 mi Calm Calm - 0.01 in   Overcast
9:53 AM 72.0 °F - 68.0 °F 87% 30.01 in 5.0 mi North 3.5 mph - N/A   Overcast
10:14 AM 73.4 °F - 69.8 °F 88% 30.01 in 6.0 mi Calm Calm - N/A   Haze
10:22 AM 75.2 °F - 69.8 °F 83% 30.01 in 7.0 mi Calm Calm - N/A   Mostly Cloudy
10:53 AM 77.0 °F - 69.1 °F 76% 30.01 in 10.0 mi Variable 3.5 mph - N/A   Mostly Cloudy
11:05 AM 78.8 °F - 69.8 °F 74% 30.00 in 10.0 mi SW 5.8 mph - N/A   Scattered Clouds
11:53 AM 81.0 °F 84.1 °F 69.1 °F 67% 29.99 in 10.0 mi West 5.8 mph - N/A   Clear
12:42 PM 80.6 °F 83.9 °F 69.8 °F 70% 29.97 in 10.0 mi NW 8.1 mph - N/A   Mostly Cloudy
12:53 PM 81.0 °F 83.8 °F 68.0 °F 65% 29.97 in 10.0 mi NW 5.8 mph - N/A   Overcast
1:53 PM 82.9 °F 86.5 °F 69.1 °F 63% 29.96 in 10.0 mi North 4.6 mph - N/A   Partly Cloudy
2:53 PM 80.1 °F 83.6 °F 71.1 °F 74% 29.94 in 10.0 mi SE 9.2 mph - N/A   Overcast
3:53 PM 78.1 °F - 71.1 °F 79% 29.93 in 10.0 mi SE 8.1 mph - N/A   Mostly Cloudy
4:51 PM 75.2 °F - 73.4 °F 94% 29.94 in 2.0 mi SSE 4.6 mph - 0.05 in Rain Rain
4:53 PM 75.0 °F - 73.0 °F 94% 29.94 in 1.8 mi SSE 3.5 mph - 0.07 in Rain Heavy Rain
5:03 PM 75.2 °F - 73.4 °F 94% 29.94 in 3.0 mi SE 4.6 mph - 0.03 in Rain Light Rain
5:44 PM 73.4 °F - 71.6 °F 94% 29.96 in 6.0 mi South 6.9 mph - 0.04 in Rain , Thunderstorm Light Thunderstorms and Rain
5:53 PM 73.9 °F - 71.1 °F 91% 29.97 in 4.0 mi SW 8.1 mph - 0.05 in Rain , Thunderstorm Thunderstorms and Rain
6:53 PM 72.0 °F - 69.1 °F 91% 29.98 in 10.0 mi NNW 3.5 mph - 0.05 in Rain , Thunderstorm Light Thunderstorms and Rain
6:56 PM 71.6 °F - 69.8 °F 94% 29.98 in 10.0 mi NNW 5.8 mph - 0.00 in Rain , Thunderstorm Light Rain
7:43 PM 71.6 °F - 68.0 °F 88% 30.00 in 2.5 mi NW 4.6 mph - 0.15 in Rain , Thunderstorm Heavy Rain
7:50 PM 71.6 °F - 68.0 °F 88% 30.00 in 5.0 mi North 3.5 mph - 0.17 in Rain , Thunderstorm Light Thunderstorms and Rain
7:53 PM 71.1 °F - 68.0 °F 90% 30.00 in 9.0 mi NNE 3.5 mph - 0.18 in Rain , Thunderstorm Light Thunderstorms and Rain
8:44 PM 68.0 °F - 64.4 °F 88% 30.02 in 10.0 mi North 10.4 mph 18.4 mph 0.00 in   Partly Cloudy
8:53 PM 68.0 °F - 64.0 °F 87% 30.03 in 10.0 mi North 8.1 mph - 0.00 in   Partly Cloudy
9:04 PM 66.2 °F - 62.6 °F 88% 30.04 in 10.0 mi North 6.9 mph - N/A Thunderstorm Mostly Cloudy
9:19 PM 64.4 °F - 60.8 °F 88% 30.05 in 10.0 mi North 12.7 mph - N/A   Overcast
9:53 PM 62.1 °F - 57.9 °F 86% 30.09 in 10.0 mi North 9.2 mph - N/A   Scattered Clouds
10:05 PM 62.6 °F - 57.2 °F 82% 30.08 in 10.0 mi North 10.4 mph 19.6 mph N/A   Mostly Cloudy
10:53 PM 60.1 °F - 55.9 °F 86% 30.09 in 10.0 mi North 12.7 mph - N/A   Mostly Cloudy
11:53 PM 59.0 °F - 55.9 °F 90% 30.09 in 10.0 mi NNW 5.8 mph - N/A   Partly Cloudy